• In Uzbekistan
  • List of Countries
  • For 7 days
  • Water Temperature
  • Satellite Maps
  • Weather Map
  • Weather Widgets
  • user-avatar
    Login

    Hourly Weather Kaprun

    Today, 22 January, Sunday

    Time Temperature Precipitation Wind Pressure Humidity
    00:00 -16°C° 0 mm 2 mps 595 mmHg 81%
    01:00 -17°C° 0 mm 2 mps 595 mmHg 83%
    02:00 -17°C° 0 mm 2 mps 595 mmHg 82%
    03:00 -16°C° 0 mm 2 mps 595 mmHg 81%
    04:00 -16°C° 0 mm 2 mps 595 mmHg 81%
    05:00 -16°C° 0 mm 2 mps 595 mmHg 81%
    06:00 -16°C° 0 mm 2 mps 594 mmHg 80%
    07:00 -16°C° 0 mm 2 mps 594 mmHg 80%
    08:00 -14°C° 0 mm 2 mps 595 mmHg 81%
    09:00 -12°C° 0 mm 2 mps 596 mmHg 81%
    10:00 -9°C° 0 mm 2 mps 598 mmHg 82%
    11:00 -8°C° 0 mm 2 mps 598 mmHg 84%
    12:00 -7°C° 0 mm 2 mps 598 mmHg 86%
    13:00 -5°C° 0 mm 2 mps 598 mmHg 89%
    14:00 -6°C° 0 mm 2 mps 598 mmHg 89%
    15:00 -7°C° 0 mm 2 mps 597 mmHg 89%
    16:00 -8°C° 0 mm 2 mps 596 mmHg 90%
    17:00 -12°C° 0 mm 2 mps 595 mmHg 89%
    18:00 -14°C° 0 mm 2 mps 594 mmHg 88%
    19:00 -16°C° 0 mm 2 mps 593 mmHg 87%
    20:00 -16°C° 0 mm 2 mps 593 mmHg 86%
    21:00 -16°C° 0 mm 2 mps 593 mmHg 84%
    22:00 -16°C° 0 mm 2 mps 593 mmHg 83%
    23:00 -16°C° 0 mm 2 mps 593 mmHg 83%

    Tomorrow, 23 January, Monday

    Time Temperature Precipitation Wind Pressure Humidity
    00:00 -17°C° 0 mm 2 mps 593 mmHg 83%
    01:00 -17°C° 0 mm 2 mps 593 mmHg 82%
    02:00 -17°C° 0 mm 2 mps 592 mmHg 81%
    03:00 -17°C° 0 mm 2 mps 592 mmHg 79%
    04:00 -18°C° 0 mm 2 mps 591 mmHg 78%
    05:00 -18°C° 0 mm 2 mps 591 mmHg 77%
    06:00 -18°C° 0 mm 2 mps 591 mmHg 76%
    07:00 -19°C° 0 mm 2 mps 590 mmHg 75%
    08:00 -16°C° 0 mm 2 mps 592 mmHg 76%
    09:00 -11°C° 0 mm 1 mps 593 mmHg 78%
    10:00 -8°C° 0 mm 1 mps 595 mmHg 79%
    11:00 -7°C° 0 mm 1 mps 595 mmHg 81%
    12:00 -4°C° 0 mm 1 mps 596 mmHg 83%
    13:00 -4°C° 0 mm 0 mps 596 mmHg 85%
    14:00 -7°C° 0 mm 0 mps 594 mmHg 87%
    15:00 -10°C° 0 mm 0 mps 592 mmHg 89%
    16:00 -13°C° 0 mm 0 mps 591 mmHg 91%
    17:00 -16°C° 0 mm 0 mps 588 mmHg 93%
    18:00 -20°C° 0 mm 0 mps 586 mmHg 95%
    19:00 -23°C° 0 mm 0 mps 584 mmHg 97%
    20:00 -23°C° 0 mm 0 mps 585 mmHg 96%
    21:00 -23°C° 0 mm 0 mps 585 mmHg 94%
    22:00 -23°C° 0 mm 1 mps 585 mmHg 92%
    23:00 -22°C° 0 mm 1 mps 586 mmHg 90%

    Day after tomorrow, 24 January, Tuesday

    Time Temperature Precipitation Wind Pressure Humidity
    00:00 -21°C° 0 mm 1 mps 586 mmHg 88%
    01:00 -21°C° 0 mm 1 mps 586 mmHg 86%
    02:00 -20°C° 0 mm 1 mps 587 mmHg 85%
    03:00 -20°C° 0 mm 1 mps 587 mmHg 84%
    04:00 -20°C° 0 mm 1 mps 587 mmHg 83%
    05:00 -20°C° 0 mm 1 mps 587 mmHg 84%
    06:00 -20°C° 0 mm 1 mps 587 mmHg 85%
    07:00 -20°C° 0 mm 1 mps 587 mmHg 86%
    08:00 -17°C° 0 mm 1 mps 590 mmHg 85%
    09:00 -13°C° 0 mm 1 mps 592 mmHg 84%
    10:00 -9°C° 0 mm 1 mps 594 mmHg 83%
    11:00 -8°C° 0 mm 1 mps 595 mmHg 83%
    12:00 -7°C° 0 mm 1 mps 595 mmHg 84%
    13:00 -4°C° 0 mm 1 mps 595 mmHg 85%
    14:00 -7°C° 0 mm 1 mps 595 mmHg 88%
    15:00 -8°C° 0 mm 1 mps 594 mmHg 92%
    16:00 -10°C° 0 mm 1 mps 593 mmHg 95%
    17:00 -12°C° 0 mm 1 mps 592 mmHg 96%
    18:00 -15°C° 0 mm 1 mps 591 mmHg 97%
    19:00 -17°C° 0 mm 1 mps 590 mmHg 98%
    20:00 -18°C° 0 mm 1 mps 590 mmHg 96%
    21:00 -18°C° 0 mm 1 mps 590 mmHg 94%
    22:00 -19°C° 0 mm 1 mps 590 mmHg 93%
    23:00 -20°C° 0 mm 1 mps 590 mmHg 92%

    25 January, Wednesday

    Time Temperature Precipitation Wind Pressure Humidity
    00:00 -20°C° 0 mm 1 mps 589 mmHg 90%
    01:00 -21°C° 0 mm 1 mps 589 mmHg 89%
    02:00 -22°C° 0 mm 1 mps 588 mmHg 89%
    03:00 -22°C° 0 mm 1 mps 588 mmHg 88%
    04:00 -23°C° 0 mm 1 mps 587 mmHg 87%
    05:00 -23°C° 0 mm 1 mps 588 mmHg 86%
    06:00 -23°C° 0 mm 1 mps 588 mmHg 85%
    07:00 -23°C° 0 mm 1 mps 588 mmHg 83%
    08:00 -18°C° 0 mm 1 mps 591 mmHg 81%
    09:00 -13°C° 0 mm 1 mps 594 mmHg 79%
    10:00 -8°C° 0 mm 0 mps 597 mmHg 76%
    11:00 -6°C° 0 mm 1 mps 598 mmHg 79%
    12:00 -4°C° 0 mm 1 mps 598 mmHg 81%
    13:00 -3°C° 0 mm 1 mps 599 mmHg 83%
    14:00 -6°C° 0 mm 1 mps 598 mmHg 86%
    15:00 -8°C° 0 mm 1 mps 596 mmHg 88%
    16:00 -10°C° 0 mm 1 mps 595 mmHg 91%
    17:00 -13°C° 0 mm 1 mps 594 mmHg 92%
    18:00 -17°C° 0 mm 1 mps 592 mmHg 93%
    19:00 -20°C° 0 mm 1 mps 590 mmHg 95%
    20:00 -19°C° 0 mm 1 mps 591 mmHg 90%
    21:00 -18°C° 0 mm 1 mps 592 mmHg 85%
    22:00 -18°C° 0 mm 1 mps 593 mmHg 79%
    23:00 -17°C° 0 mm 1 mps 593 mmHg 78%

    26 January, Thursday

    Time Temperature Precipitation Wind Pressure Humidity
    00:00 -17°C° 0 mm 1 mps 593 mmHg 76%
    01:00 -16°C° 0 mm 1 mps 594 mmHg 74%
    02:00 -16°C° 0 mm 1 mps 594 mmHg 73%
    03:00 -15°C° 0 mm 1 mps 594 mmHg 71%
    04:00 -15°C° 0 mm 1 mps 594 mmHg 70%
    05:00 -15°C° 0 mm 1 mps 594 mmHg 69%
    06:00 -15°C° 0 mm 1 mps 595 mmHg 68%
    07:00 -15°C° 0 mm 1 mps 595 mmHg 67%
    08:00 -12°C° 0 mm 1 mps 597 mmHg 70%
    09:00 -9°C° 0 mm 1 mps 598 mmHg 73%
    10:00 -6°C° 0 mm 1 mps 600 mmHg 75%
    11:00 -4°C° 0 mm 1 mps 600 mmHg 80%
    12:00 -3°C° 0 mm 1 mps 601 mmHg 84%
    13:00 -1°C° 0 mm 1 mps 601 mmHg 88%
    14:00 -3°C° 0 mm 1 mps 600 mmHg 87%
    15:00 -4°C° 0 mm 1 mps 599 mmHg 85%
    16:00 -7°C° 0 mm 1 mps 599 mmHg 84%
    17:00 -8°C° 0 mm 1 mps 598 mmHg 82%
    18:00 -10°C° 0 mm 1 mps 597 mmHg 80%
    19:00 -12°C° 0 mm 1 mps 597 mmHg 78%
    20:00 -14°C° 0 mm 2 mps 597 mmHg 77%
    21:00 -13°C° 0 mm 2 mps 597 mmHg 76%
    22:00 -13°C° 0 mm 2 mps 598 mmHg 75%
    23:00 -13°C° 0 mm 2 mps 598 mmHg 74%

    27 January, Friday

    Time Temperature Precipitation Wind Pressure Humidity
    00:00 -13°C° 0 mm 2 mps 598 mmHg 74%
    01:00 -13°C° 0 mm 2 mps 598 mmHg 74%
    02:00 -13°C° 0 mm 2 mps 598 mmHg 74%
    03:00 -13°C° 0 mm 2 mps 597 mmHg 75%
    04:00 -13°C° 0 mm 2 mps 597 mmHg 76%
    05:00 -13°C° 0 mm 2 mps 597 mmHg 76%
    06:00 -13°C° 0 mm 2 mps 597 mmHg 76%
    07:00 -14°C° 0 mm 2 mps 597 mmHg 76%
    08:00 -9°C° 0 mm 1 mps 599 mmHg 77%
    09:00 -7°C° 0 mm 1 mps 600 mmHg 78%
    10:00 -3°C° 0 mm 1 mps 602 mmHg 79%
    11:00 -2°C° 0 mm 1 mps 602 mmHg 83%
    12:00 -2°C° 0 mm 1 mps 602 mmHg 87%
    13:00 -1°C° 0 mm 1 mps 602 mmHg 91%
    14:00 -2°C° 0 mm 1 mps 601 mmHg 88%
    15:00 -4°C° 0 mm 1 mps 600 mmHg 86%
    16:00 -6°C° 0 mm 1 mps 600 mmHg 83%
    17:00 -10°C° 0 mm 0 mps 598 mmHg 86%
    18:00 -14°C° 0 mm 0 mps 596 mmHg 89%
    19:00 -17°C° 0 mm 0 mps 594 mmHg 92%
    20:00 -17°C° 0 mm 0 mps 594 mmHg 90%
    21:00 -16°C° 0 mm 0 mps 594 mmHg 88%
    22:00 -16°C° 0 mm 1 mps 594 mmHg 86%
    23:00 -16°C° 0 mm 1 mps 594 mmHg 85%
    Show more